sat.trackr.live / text

‹ back to catalog

EUTELSAT 65 WEST A

NORAD 41382 · 2016-014A

PAYLOAD ACTIVE UNKNOWN

§ Identity

Operator
Country
EUTE
Launch date
2016-03-09
Launch site
FRGUI
Launch vehicle
Mass (kg)
RCS (m²)
47.75

Purposes: comms

External: N2YO · Heavens-Above · Gunter

§ Orbital elements

Epoch: 2026-05-25T04:31:38.768160Z

Period
1,436.08 min
Inclination
0.0653°
Eccentricity
0.0002432
Mean motion
1.00272900 rev/d
Perigee alt
35,776.0 km
Apogee alt
35,796.5 km
Semi-major
42,164.4 km
B*
0.0000e+0
RAAN
34.4313°
Arg perigee
21.5383°
Mean anomaly
189.5263°
Rev number
3,729

§ Raw data

EUTELSAT 65 WEST A1 41382U 16014A   26145.18864315 -.00000278  00000+0  00000+0 0  99902 41382   0.0653  34.4313 0002432  21.5383 189.5263  1.00272900 37291

JSON: /api/v1/satellites/41382 · /tle

For live sub-satellite position, see the globe view (requires WebGL).

§ Visibility from observer

Set your observer location to see the next 7 days of passes ≥ 10°. The values pass through the URL so the page stays shareable.

No JS? Fill the form by hand. The geolocation button needs JavaScript.